TimeCST,TemperatureF,Dew PointF,Humidity,Sea Level PressureIn,VisibilityMPH,Wind Direction,Wind SpeedMPH,Gust SpeedMPH,PrecipitationIn,Events,Conditions,WindDirDegrees,DateUTC
12:52 AM,33.1,28.0,82,30.19,10.0,West,5.8,-,N/A,,Clear,280,2013-02-03 06:52:00
1:52 AM,34.0,28.0,79,30.19,10.0,WNW,10.4,-,N/A,,Clear,290,2013-02-03 07:52:00
2:52 AM,37.9,27.0,65,30.20,10.0,NW,17.3,25.3,N/A,,Clear,320,2013-02-03 08:52:00
3:52 AM,36.0,26.1,67,30.22,10.0,NW,13.8,-,N/A,,Clear,320,2013-02-03 09:52:00
4:52 AM,32.0,25.0,75,30.24,10.0,WNW,8.1,-,N/A,,Clear,300,2013-02-03 10:52:00
6:52 AM,30.0,24.1,79,30.28,10.0,West,5.8,-,N/A,,Clear,280,2013-02-03 12:52:00
7:52 AM,28.0,23.0,81,30.30,10.0,NW,3.5,-,N/A,,Clear,310,2013-02-03 13:52:00
8:52 AM,35.1,27.0,72,30.31,10.0,NW,4.6,-,N/A,,Clear,310,2013-02-03 14:52:00
9:52 AM,39.0,19.0,45,30.29,10.0,North,8.1,-,N/A,,Clear,350,2013-02-03 15:52:00
10:52 AM,39.9,16.0,38,30.27,10.0,Calm,Calm,-,N/A,,Clear,0,2013-02-03 16:52:00
11:52 AM,42.1,18.0,38,30.23,10.0,SSE,9.2,-,N/A,,Clear,150,2013-02-03 17:52:00
12:52 PM,43.0,17.1,35,30.19,10.0,SE,6.9,-,N/A,,Clear,140,2013-02-03 18:52:00
1:52 PM,46.9,19.0,33,30.14,10.0,South,8.1,-,N/A,,Clear,170,2013-02-03 19:52:00
2:52 PM,48.9,19.0,31,30.11,10.0,South,10.4,-,N/A,,Clear,180,2013-02-03 20:52:00
3:52 PM,50.0,21.9,33,30.06,10.0,South,10.4,-,N/A,,Clear,170,2013-02-03 21:52:00
4:52 PM,48.9,23.0,36,30.03,10.0,SSW,16.1,-,N/A,,Clear,200,2013-02-03 22:52:00
5:52 PM,44.1,24.1,45,30.01,10.0,South,6.9,-,N/A,,Clear,180,2013-02-03 23:52:00
6:52 PM,44.1,26.1,49,30.00,10.0,South,6.9,-,N/A,,Clear,180,2013-02-04 00:52:00
7:52 PM,39.9,27.0,60,29.98,10.0,ESE,5.8,-,N/A,,Clear,120,2013-02-04 01:52:00
8:52 PM,42.1,27.0,55,29.94,10.0,SSE,4.6,-,N/A,,Clear,160,2013-02-04 02:52:00
9:52 PM,43.0,27.0,53,29.91,10.0,South,6.9,-,N/A,,Clear,180,2013-02-04 03:52:00
10:52 PM,39.9,27.0,60,29.89,10.0,ESE,4.6,-,N/A,,Clear,110,2013-02-04 04:52:00
11:52 PM,42.1,27.0,55,29.86,10.0,East,5.8,-,N/A,,Clear,100,2013-02-04 05:52:00